PROBA-1 1 26958U 01049B 25260.99051227 .00003099 00000+0 21145-3 0 9990 2 26958 97.9570 255.3963 0055819 324.0205 35.7268 15.05761717302631 CUTE-1 (CO-55) 1 27844U 03031E 25260.59376165 .00000298 00000+0 14858-3 0 9996 2 27844 98.6792 267.5925 0008437 255.8478 104.1764 14.24068842152870 CUBESAT XI-IV (CO-57) 1 27848U 03031J 25260.94068674 .00000259 00000+0 13343-3 0 9997 2 27848 98.6823 267.8644 0008321 274.7393 85.2835 14.23393551152648 APRIZESAT 4 1 35684U 09041D 25260.64583773 .00000843 00000+0 10853-3 0 9992 2 35684 98.1756 325.1813 0044994 124.1411 236.4082 14.83208731870952 APRIZESAT 3 1 35686U 09041F 25260.94341437 .00002040 00000+0 18637-3 0 9995 2 35686 98.1693 37.0149 0062206 245.2134 114.2605 14.94832196875687 PROBA-2 1 36037U 09059B 25260.04323205 .00000218 00000+0 61463-4 0 9990 2 36037 98.2408 82.2880 0014133 47.9985 312.2413 14.54611358841810 APRIZESAT 5 1 37792U 11044E 25260.74168655 .00000883 00000+0 12097-3 0 9995 2 37792 98.2271 181.4988 0053545 158.3053 202.0443 14.80178577758479 APRIZESAT 6 1 37793U 11044F 25260.74441605 .00000715 00000+0 10987-3 0 9995 2 37793 98.2472 160.5797 0042412 236.3728 193.2536 14.76251739756947 PROBA-V 1 39159U 13021A 25260.96962093 .00000084 00000+0 55046-4 0 9998 2 39159 98.3307 248.4906 0003668 193.6968 166.4112 14.23513030642383 APRIZESAT 7 1 39416U 13066A 25260.83565071 .00001615 00000+0 16935-3 0 9998 2 39416 97.7310 213.8016 0037678 36.1857 324.1900 14.90416382640641 APRIZESAT 8 1 39425U 13066K 25260.92978924 .00001197 00000+0 13804-3 0 9990 2 39425 97.7845 207.9467 0048384 101.2307 259.4352 14.86696185639205 BUGSAT-1 (TITA) 1 40014U 14033E 25260.98438564 .00004316 00000+0 25411-3 0 9991 2 40014 98.0660 333.1030 0030877 30.8679 329.4357 15.11816018614658 SAUDISAT 4 1 40016U 14033G 25260.92729225 .00000824 00000+0 11702-3 0 9992 2 40016 97.7214 52.2234 0044153 238.6175 121.0714 14.78897415605821 APRIZESAT 9 1 40018U 14033J 25260.92053390 .00000575 00000+0 92954-4 0 9999 2 40018 97.8687 36.5134 0066721 356.9266 3.1523 14.73629860603459 APRIZESAT 10 1 40019U 14033K 25260.90990875 .00000570 00000+0 97808-4 0 9994 2 40019 97.9306 29.6259 0080690 63.8069 297.1406 14.70375870602232 TECHDEMOSAT-1 (TDS-1) 1 40076U 14037H 25260.90030419 .00008022 00000+0 53854-3 0 9992 2 40076 98.3533 222.8240 0009509 100.8270 259.4026 15.07087530607121 TECHNOSAT 1 42829U 17042E 25260.90669001 .00002829 00000+0 21766-3 0 9990 2 42829 97.4010 64.9073 0016132 307.5304 52.4455 15.02365206445785 FLYING LAPTOP 1 42831U 17042G 25260.98761434 .00002229 00000+0 18767-3 0 9995 2 42831 97.4151 63.6369 0010591 334.3442 25.7255 14.99147580445646 HAWK-A 1 43765U 18099H 25260.70299708 .00007156 00000+0 34237-3 0 9999 2 43765 97.4362 311.7297 0036261 160.8934 199.3670 15.18690068371647 HAWK-B 1 43794U 18099AN 25260.70579569 .00006471 00000+0 31542-3 0 9992 2 43794 97.4413 311.6190 0035373 174.5698 185.5927 15.18113326371626 HAWK-C 1 43799U 18099AT 25260.63508490 .00007362 00000+0 34799-3 0 9991 2 43799 97.4345 311.5444 0035685 160.8313 199.4274 15.19119478372371 SALSAT 1 46495U 20068K 25260.91735551 .00007439 00000+0 30842-3 0 9997 2 46495 97.8707 243.7322 0011516 163.1562 197.0059 15.24146179273800 HAWK-2C 1 47502U 21006CT 25260.73747681 .00007701 00000+0 26982-3 0 9999 2 47502 97.2706 305.6888 0009548 97.4271 262.8055 15.29703752257772 HAWK-2A 1 47505U 21006CW 25260.73904484 .00006103 00000+0 21454-3 0 9992 2 47505 97.2754 306.2112 0009172 99.2618 260.9661 15.29684575257776 HAWK-2B 1 47508U 21006CZ 25260.73776950 .00007030 00000+0 24655-3 0 9996 2 47508 97.2627 305.0022 0009817 97.9036 262.3319 15.29700495257776 HAWK-3B 1 48931U 21059BE 25260.00776489 .00020445 00000+0 38014-3 0 9991 2 48931 97.6710 70.3315 0006931 241.9044 118.1505 15.48904890235299 HAWK-3C 1 48948U 21059BX 25260.00762964 .00019627 00000+0 36484-3 0 9991 2 48948 97.6929 75.4217 0007519 245.9685 114.0778 15.48916810235296 HAWK-3A 1 48957U 21059CG 25260.26586969 .00018201 00000+0 33858-3 0 9997 2 48957 97.6822 73.1698 0007578 237.8092 122.2423 15.48911410235337 HAWK-5C 1 52754U 22057Y 25260.89409911 .00014545 00000+0 37141-3 0 9992 2 52754 97.6288 41.0187 0005149 339.6756 20.4283 15.39582849184280 HAWK-5B 1 52756U 22057AA 25260.89391749 .00014466 00000+0 36937-3 0 9997 2 52756 97.6269 39.3959 0005408 333.3919 26.7048 15.39584050184282 HAWK-5A 1 52757U 22057AB 25260.89365267 .00013697 00000+0 34985-3 0 9990 2 52757 97.6279 40.2069 0005719 335.4225 24.6746 15.39584919184281 HAWK-6B 1 55324U 23011A 25260.87668138 .00004974 00000+0 24051-3 0 9996 2 55324 40.5145 136.1075 0003377 293.9135 66.1319 15.19160567146362 HAWK-6C 1 55326U 23011C 25260.02156008 .00005253 00000+0 25358-3 0 9995 2 55326 40.4832 138.4012 0002885 278.4602 81.5879 15.19145828146244 HAWK-6A 1 55327U 23011D 25260.02147665 .00005501 00000+0 26512-3 0 9994 2 55327 40.4991 139.7693 0002665 288.0193 72.0324 15.19146471146243 HAWK-7A 1 56191U 23054P 25260.69174643 .00007306 00000+0 26286-3 0 9993 2 56191 97.3008 149.0579 0006070 344.2801 15.8250 15.28883058135414 HAWK-7B 1 56193U 23054R 25260.69171798 .00007439 00000+0 26751-3 0 9997 2 56193 97.3026 147.2396 0007131 352.4110 7.7021 15.28883282135411 HAWK-7C 1 56200U 23054Y 25260.69156862 .00007250 00000+0 26084-3 0 9991 2 56200 97.3017 148.0686 0006360 352.6441 7.4705 15.28882791135413